Weather History for Waukegan, IL

Change the Weather History Date:

Saturday, February 23, 2013

  Actual Average Record
Temperature  
Mean Temperature 25 °F -  
Max Temperature 29 °F 36 °F 65 °F (2000)
Min Temperature 20 °F 21 °F 6 °F (2009)
Degree Days  
Heating Degree Days 40 37  
Month to date heating degree days 966 918  
Since 1 July heating degree days 4426 4769  
Cooling Degree Days 0 0  
Month to date cooling degree days 0 0  
Year to date cooling degree days 0 0  
Moisture  
Dew Point 19 °F    
Average Humidity 73    
Maximum Humidity 88    
Minimum Humidity 58    
Precipitation  
Precipitation 0.00 in 0.06 in 0.42 in (2012)
Month to date precipitation 0.41 1.36  
Year to date precipitation 1.69 2.75  
Sea Level Pressure  
Sea Level Pressure 29.92 in    
Wind  
Wind Speed 7 mph (SW)    
Max Wind Speed 15 mph    
Max Gust Speed 20 mph    
Visibility 8 miles    
Events      
T = Trace of Precipitation, MM = Missing Value Source: NWS Daily Summary

Daily Weather History Graph

Daily Weather History Graph

Search for Another Location

Airport:

Trip Planner

Search our weather history database for the weather conditions in past years. The results will help you decide how hot, cold, wet, or windy it might be!

Date:

Astronomy

Feb. 23, 2013 Rise Set
Actual Time 6:35 AM CST 5:34 PM CST
Civil Twilight 6:07 AM CST 6:02 PM CST
Nautical Twilight 5:34 AM CST 6:35 PM CST
Astronomical Twilight 5:02 AM CST 7:07 PM CST
Moon 3:43 PM CST (2/23) 4:59 AM CST (2/23)
Length of Visible Light 11h 55m
Length of Day
10h 58m
Waxing Gibbous, 95% of the Moon is Illuminated
Feb 23
Waxing Gibbous
Feb 25
Full
Mar 4
Last Quarter
Mar 11
New
Mar 19
First Quarter

Hourly Weather History & Observations

Time (CST) Temp. Windchill Dew Point Humidity Pressure Visibility Wind Dir Wind Speed Gust Speed Precip Events Conditions
12:15 AM 28.4 °F 23.3 °F 24.8 °F 86% 29.85 in 5.0 mi WSW 4.6 mph - N/A   Overcast
12:52 AM 28.0 °F 20.0 °F 24.1 °F 85% 29.90 in 5.0 mi SW 8.1 mph - N/A   Overcast
1:23 AM 28.4 °F 20.4 °F 24.8 °F 86% 29.86 in 5.0 mi SW 8.1 mph - N/A   Overcast
1:52 AM 28.0 °F 21.7 °F 24.1 °F 85% 29.90 in 5.0 mi SW 5.8 mph - N/A   Overcast
2:48 AM 26.6 °F 18.2 °F 23.0 °F 86% 29.85 in 5.0 mi SW 8.1 mph 17.3 mph N/A   Overcast
2:52 AM 27.0 °F 18.7 °F 23.0 °F 85% 29.89 in 5.0 mi SW 8.1 mph 17.3 mph N/A   Overcast
3:52 AM 26.1 °F 16.8 °F 21.9 °F 84% 29.90 in 6.0 mi SW 9.2 mph - N/A   Overcast
4:52 AM 25.0 °F 15.5 °F 21.0 °F 85% 29.91 in 6.0 mi SW 9.2 mph 17.3 mph N/A   Overcast
5:31 AM 24.8 °F 13.4 °F 19.4 °F 80% 29.88 in 6.0 mi SW 12.7 mph 17.3 mph 0.01 in   Overcast
5:52 AM 24.1 °F 13.7 °F 19.9 °F 84% 29.92 in 6.0 mi SW 10.4 mph - 0.01 in   Overcast
6:52 AM 24.1 °F 16.0 °F 19.0 °F 81% 29.94 in 6.0 mi SW 6.9 mph - 0.01 in   Haze
7:52 AM 24.1 °F 16.0 °F 19.0 °F 81% 29.94 in 6.0 mi SW 6.9 mph - N/A   Haze
8:52 AM 25.0 °F 19.3 °F 18.0 °F 75% 29.93 in 7.0 mi Variable 4.6 mph - N/A   Overcast
9:52 AM 26.1 °F 16.8 °F 18.0 °F 71% 29.94 in 8.0 mi SW 9.2 mph - N/A   Overcast
10:08 AM 26.6 °F 16.8 °F 19.4 °F 74% 29.89 in 8.0 mi SW 10.4 mph 19.6 mph N/A   Overcast
10:18 AM 26.6 °F 15.7 °F 17.6 °F 69% 29.89 in 8.0 mi SW 12.7 mph 18.4 mph N/A   Overcast
10:52 AM 27.0 °F 17.3 °F 19.0 °F 72% 29.94 in 7.0 mi SW 10.4 mph 19.6 mph N/A   Overcast
11:08 AM 26.6 °F 18.2 °F 17.6 °F 69% 29.90 in 7.0 mi SW 8.1 mph 17.3 mph N/A   Overcast
11:52 AM 27.0 °F 20.5 °F 18.0 °F 69% 29.94 in 10.0 mi WSW 5.8 mph 19.6 mph N/A   Mostly Cloudy
12:52 PM 28.0 °F 19.3 °F 16.0 °F 61% 29.92 in 10.0 mi SW 9.2 mph 18.4 mph N/A   Partly Cloudy
1:52 PM 28.0 °F 18.6 °F 16.0 °F 61% 29.91 in 10.0 mi SW 10.4 mph 16.1 mph N/A   Partly Cloudy
2:52 PM 28.0 °F 16.5 °F 17.1 °F 63% 29.92 in 10.0 mi SW 15.0 mph - N/A   Scattered Clouds
3:52 PM 28.9 °F 19.8 °F 16.0 °F 58% 29.92 in 10.0 mi SW 10.4 mph - N/A   Partly Cloudy
4:52 PM 27.0 °F 19.5 °F 17.1 °F 66% 29.93 in 10.0 mi SW 6.9 mph - N/A   Partly Cloudy
5:52 PM 25.0 °F 19.3 °F 16.0 °F 69% 29.96 in 10.0 mi SW 4.6 mph - N/A   Clear
6:52 PM 24.1 °F 16.0 °F 16.0 °F 71% 29.97 in 10.0 mi SW 6.9 mph - N/A   Clear
7:52 PM 24.1 °F 19.7 °F 17.1 °F 75% 29.97 in 10.0 mi SW 3.5 mph - N/A   Clear
8:52 PM 23.0 °F 18.4 °F 17.1 °F 78% 29.97 in 9.0 mi SW 3.5 mph - N/A   Clear
9:52 PM 23.0 °F 18.4 °F 17.1 °F 78% 29.97 in 9.0 mi Variable 3.5 mph - N/A   Scattered Clouds
10:52 PM 21.9 °F 15.7 °F 16.0 °F 78% 29.96 in 9.0 mi Variable 4.6 mph - N/A   Clear
11:52 PM 19.9 °F 14.9 °F 15.1 °F 81% 29.97 in 9.0 mi Variable 3.5 mph - N/A   Clear